Weather History for Lawrenceville, IL

Change the Weather History Date:

Thursday, January 17, 2013

  Actual Average Record
Temperature  
Mean Temperature 35 °F 31 °F  
Max Temperature 44 °F 39 °F 61 °F (2012)
Min Temperature 25 °F 23 °F 0 °F (1997)
Degree Days  
Heating Degree Days 30 34  
Month to date heating degree days 586 578  
Since 1 July heating degree days 2408 2377  
Cooling Degree Days 0 0  
Month to date cooling degree days 0 0  
Year to date cooling degree days 0 0  
Moisture  
Dew Point 26 °F    
Average Humidity 75    
Maximum Humidity 92    
Minimum Humidity 57    
Precipitation  
Precipitation 0.00 in 0.10 in 0.89 in (1978)
Month to date precipitation 4.36 1.54  
Year to date precipitation 4.36 1.54  
Sea Level Pressure  
Sea Level Pressure 30.30 in    
Wind  
Wind Speed 10 mph (NNW)    
Max Wind Speed 25 mph    
Max Gust Speed 30 mph    
Visibility 8 miles    
Events      
T = Trace of Precipitation, MM = Missing Value Source: NWS Daily Summary

Daily Weather History Graph

Daily Weather History Graph

Search for Another Location

Airport:

Trip Planner

Search our weather history database for the weather conditions in past years. The results will help you decide how hot, cold, wet, or windy it might be!

Date:

Astronomy

Jan. 17, 2013 Rise Set
Actual Time 7:06 AM CST 4:55 PM CST
Civil Twilight 6:37 AM CST 5:24 PM CST
Nautical Twilight 6:04 AM CST 5:57 PM CST
Astronomical Twilight 5:32 AM CST 6:28 PM CST
Moon 10:17 AM CST (1/17) 11:41 PM CST (1/17)
Length of Visible Light 10h 47m
Length of Day
9h 49m
Waxing Crescent, 38% of the Moon is Illuminated
Jan 17
Waxing Crescent
Jan 18
First Quarter
Jan 26
Full
Feb 3
Last Quarter
Feb 10
New

Hourly Weather History & Observations

Time (CST) Temp. Windchill Dew Point Humidity Pressure Visibility Wind Dir Wind Speed Gust Speed Precip Events Conditions
12:53 AM 32.0 °F 28.7 °F 26.1 °F 79% 30.15 in 7.0 mi South 3.5 mph - N/A   Overcast
1:53 AM 30.0 °F 26.5 °F 27.0 °F 88% 30.16 in 5.0 mi SSE 3.5 mph - N/A   Mostly Cloudy
2:53 AM 30.0 °F - 26.1 °F 85% 30.17 in 5.0 mi Calm Calm - N/A   Clear
3:53 AM 30.0 °F 26.5 °F 26.1 °F 85% 30.17 in 4.0 mi East 3.5 mph - N/A   Mostly Cloudy
4:53 AM 30.9 °F - 28.0 °F 89% 30.19 in 5.0 mi Calm Calm - N/A   Overcast
5:53 AM 30.9 °F - 28.0 °F 89% 30.20 in 5.0 mi Calm Calm - N/A   Overcast
6:53 AM 30.9 °F 27.5 °F 28.0 °F 89% 30.21 in 4.0 mi North 3.5 mph - N/A   Overcast
7:53 AM 34.0 °F 25.0 °F 26.1 °F 73% 30.23 in 6.0 mi North 12.7 mph - N/A   Haze
8:53 AM 37.9 °F 28.9 °F 28.0 °F 68% 30.26 in 6.0 mi North 16.1 mph - N/A   Haze
9:53 AM 39.9 °F 31.4 °F 30.0 °F 68% 30.28 in 6.0 mi NNE 16.1 mph - N/A   Haze
11:53 AM 43.0 °F 36.8 °F 33.1 °F 68% 30.25 in 7.0 mi NNW 11.5 mph - N/A   Clear
12:53 PM 43.0 °F 35.1 °F 30.9 °F 62% 30.25 in 6.0 mi NNW 17.3 mph - N/A   Haze
1:53 PM 42.1 °F 33.1 °F 28.9 °F 60% 30.25 in 8.0 mi NNW 20.7 mph - N/A   Partly Cloudy
2:53 PM 39.9 °F 30.0 °F 27.0 °F 60% 30.27 in 9.0 mi NNW 21.9 mph 29.9 mph N/A   Partly Cloudy
3:53 PM 37.9 °F 27.6 °F 24.1 °F 57% 30.30 in 10.0 mi NNW 20.7 mph - N/A   Clear
4:53 PM 35.1 °F 25.2 °F 24.1 °F 64% 30.35 in 10.0 mi North 16.1 mph - N/A   Clear
5:53 PM 33.1 °F 24.4 °F 24.1 °F 70% 30.38 in 10.0 mi NNW 11.5 mph - N/A   Clear
6:53 PM 32.0 °F 24.8 °F 24.1 °F 73% 30.42 in 10.0 mi NNW 8.1 mph - N/A   Clear
7:53 PM 30.9 °F 23.5 °F 21.9 °F 69% 30.45 in 10.0 mi NNW 8.1 mph - N/A   Clear
8:53 PM 28.9 °F 21.1 °F 21.0 °F 72% 30.47 in 10.0 mi NNW 8.1 mph - N/A   Clear
9:53 PM 28.0 °F 21.7 °F 21.0 °F 75% 30.47 in 10.0 mi NNW 5.8 mph - N/A   Clear
10:53 PM 27.0 °F 21.6 °F 21.0 °F 78% 30.48 in 10.0 mi North 4.6 mph - N/A   Clear
11:53 PM 26.1 °F 18.4 °F 19.0 °F 75% 30.51 in 10.0 mi WNW 6.9 mph - N/A   Clear